RH
56 54 62 64 68 68 67 67 67 71 70 67 67 75 81 80 82 79 94 73 79 64 64 45 45 45 48 56 56 59 72 80 67 62 50 39 34 36 33 42 46 48 52 60 84
57 55 54 64 65 66 67 69 66 68 68 69 67 67 79 81 84 83 73 71 68 65 67 51 41 47 59 58 55 59 76 67 53 48 40 32 40 31 36 44 54 68 62 76 95
56 55 55 59 65 67 66 67 68 66 66 64 67 66 76 78 93 66 58 61 67 70 63 45 39 48 61 57 56 60 62 56 46 37 36 32 36 32 36 48 41 45 59 82 94
58 56 56 55 58 65 67 65 71 66 59 64 67 68 70 79 92 56 59 56 58 70 66 61 45 58 64 62 50 66 53 47 45 40 43 40 29 32 36 34 32 42 57 75 86
57 58 56 58 60 64 64 63 64 66 65 66 69 69 70 88 82 50 64 59 51 65 72 62 52 53 59 57 52 55 50 47 43 44 41 40 37 32 30 30 45 57 64 68 72
58 57 57 60 59 63 63 62 64 65 67 68 66 69 87 94 54 51 51 60 54 54 52 51 45 43 48 50 55 49 44 41 40 38 39 38 38 30 27 28 50 64 68 65 66
59 56 58 57 60 59 60 62 62 65 68 69 66 63 81 78 55 54 57 70 59 55 62 49 38 44 47 52 42 44 48 46 46 39 38 36 39 36 28 30 30 64 72 72 65
62 60 60 58 63 62 62 62 63 66 67 67 67 67 86 53 51 52 42 57 61 68 66 62 53 42 43 45 46 46 54 55 44 39 36 32 42 36 31 30 30 33 64 75 69
64 63 62 63 64 63 64 64 63 65 66 68 78 87 82 51 65 54 60 64 64 65 55 44 53 53 50 49 68 64 58 53 46 37 37 40 47 34 30 34 32 33 33 49 68
63 63 64 66 64 65 66 68 68 66 69 67 65 88 74 66 55 57 54 56 77 71 67 58 62 72 66 52 70 75 57 46 44 36 38 44 43 36 33 34 33 32 33 36 35
61 61 64 66 65 67 74 88 74 78 80 83 67 71 63 47 42 45 62 69 75 84 91 67 80 84 70 62 43 49 47 47 41 32 37 40 37 31 32 35 32 36 33 31 30
61 63 61 67 68 68 82 77 82 89 95 68 75 73 59 49 60 48 41 89 84 92 83 88 88 68 56 55 52 46 49 49 41 34 36 38 38 33 33 33 28 26 27 27 28
62 62 62 67 70 84 86 75 82 84 90 66 59 63 61 52 65 56 46 72 81 82 82 91 76 62 56 62 61 53 51 48 45 40 43 42 46 37 34 34 31 29 25 26 26
66 62 63 67 76 83 84 77 78 84 94 68 77 71 56 50 61 40 37 58 80 79 77 80 64 63 60 66 56 64 44 42 43 46 59 52 62 42 38 36 36 32 31 26 26
68 64 64 64 82 85 73 79 73 88 100 40 57 49 62 57 52 53 37 48 89 75 74 70 70 72 67 65 54 60 44 46 47 48 54 56 63 50 40 37 30 31 30 32 30
70 66 68 74 88 79 76 75 86 94 95 53 51 57 42 48 70 56 59 52 80 76 72 60 58 56 54 56 51 45 44 48 55 55 83 65 56 54 35 39 32 25 27 29 30
70 68 70 71 85 75 77 87 86 98 52 50 49 42 48 42 42 88 75 85 94 98 96 79 68 55 48 54 53 41 44 86 84 81 84 52 64 44 38 36 29 23 29 28 30
71 68 70 66 75 80 80 92 96 50 56 42 51 48 52 84 75 79 90 83 72 82 91 92 94 63 46 57 71 60 52 86 90 92 63 55 63 49 35 25 27 28 27 31 30
71 81 83 80 75 82 90 100 84 60 41 45 55 56 76 86 82 84 83 86 73 88 93 99 79 63 54 47 55 64 61 46 62 76 75 67 58 42 38 35 34 31 30 32 29
94 93 88 76 78 90 99 88 72 56 48 48 67 74 93 79 70 91 80 55 57 90 86 88 80 64 56 45 44 49 45 58 65 88 80 76 70 45 41 29 28 34 33 29 29
94 94 72 81 81 97 98 91 70 53 45 57 69 82 66 83 80 75 88 66 92 83 94 100 95 74 60 59 59 53 53 49 65 85 74 79 66 48 35 34 30 29 29 29 28
95 98 90 85 100 98 98 83 58 56 53 67 97 94 83 84 92 82 87 74 90 98 90 89 100 97 73 48 49 50 56 56 83 96 73 71 59 40 33 28 34 32 32 33 31
99 84 86 86 99 99 94 92 76 73 75 71 77 73 68 75 95 92 74 90 100 96 95 90 95 97 99 85 69 74 55 46 52 55 69 71 58 38 41 39 35 32 31 30 33
100 98 95 98 92 88 96 95 88 81 92 80 87 80 86 90 78 94 86 83 74 80 92 84 88 91 93 93 85 93 83 76 66 80 62 55 45 42 38 34 34 34 34 31 35
100 95 84 99 96 94 94 95 89 81 68 66 92 81 93 96 81 80 54 65 63 76 97 97 97 79 75 74 70 71 72 72 82 88 81 50 47 36 37 34 30 32 34 33 35
98 98 90 97 89 96 88 95 78 66 68 72 71 70 74 93 75 88 76 75 86 87 100 100 94 83 77 56 72 77 64 62 54 65 68 52 46 34 31 38 37 34 34 34 34
98 90 90 83 90 96 88 78 71 72 68 58 62 77 74 64 58 63 61 60 66 81 86 97 97 95 88 61 72 97 70 58 56 46 50 55 39 40 39 35 33 32 36 32 30
Wind_Speed
17 17 18 20 20 19 19 19 20 19 20 20 21 20 21 20 21 11 16 10 13 14 12 3 3 4 2 3 4 4 3 4 5 5 5 3 5 1 3 7 1 5 5 1 17
19 20 19 19 20 20 19 19 21 21 20 21 19 19 19 19 14 17 17 22 26 22 7 7 5 6 2 4 4 5 6 10 7 4 1 3 2 6 4 5 3 1 4 9 16
17 19 18 20 20 21 21 19 21 21 21 21 20 19 17 14 10 14 15 18 19 25 15 5 3 6 5 4 5 5 9 5 5 6 2 4 2 4 6 4 8 13 9 10 13
18 18 19 20 20 21 21 22 21 21 21 21 20 17 17 5 12 5 14 10 16 6 10 4 4 6 7 8 5 3 7 6 7 5 1 3 5 3 7 7 3 6 14 14 16
18 18 18 18 21 20 21 21 22 22 21 21 20 16 9 9 20 23 14 14 3 6 8 7 7 6 8 7 5 6 4 6 10 5 5 1 6 6 6 3 3 9 11 16 17
17 16 17 18 20 21 22 23 24 24 22 20 20 17 6 23 6 20 16 13 4 5 5 8 7 7 6 6 9 6 8 12 7 7 4 3 5 8 7 4 6 9 11 13 16
15 16 16 17 18 21 23 24 25 27 25 22 19 12 14 31 5 10 12 6 5 3 6 6 10 6 5 2 9 5 6 7 6 6 7 6 9 10 7 4 6 8 9 8 13
17 16 16 17 18 21 22 25 27 28 29 24 19 11 19 3 13 23 22 17 13 10 7 8 8 9 6 3 1 5 5 11 5 9 6 9 15 8 10 8 9 9 8 10 12
17 16 16 16 18 21 23 26 30 29 25 21 7 7 17 6 8 19 16 18 6 7 5 8 3 6 4 12 4 4 5 5 5 9 5 9 3 8 9 10 11 10 10 10 11
16 16 16 16 18 21 24 27 24 18 6 2 5 3 8 8 5 13 19 17 12 7 7 7 5 5 5 10 18 9 5 5 6 7 8 7 10 7 3 7 11 11 10 9 10
16 16 15 16 18 19 14 6 7 4 9 10 16 18 25 13 23 15 8 14 14 10 13 7 8 17 24 20 13 3 4 10 4 5 5 10 11 15 11 6 10 9 11 11 13
14 14 14 15 16 17 3 4 3 6 16 15 22 27 29 17 22 27 17 15 17 23 20 9 17 24 13 13 15 16 12 9 5 3 6 5 10 12 9 8 12 16 12 12 7
14 12 12 10 13 4 2 4 5 7 8 17 16 16 9 18 23 23 11 13 17 27 24 22 17 16 17 15 15 19 22 16 5 1 2 4 6 10 6 7 7 11 13 9 13
12 12 10 6 5 1 5 5 7 1 7 9 4 8 4 8 11 26 21 12 16 24 22 19 21 15 22 22 16 20 22 16 10 2 7 3 7 8 6 10 7 12 11 17 14
11 13 8 1 3 1 3 6 7 1 7 6 4 1 9 6 11 7 23 17 14 15 18 19 20 29 18 27 24 14 11 15 8 8 2 7 5 6 4 10 10 10 15 12 13
12 11 6 0 2 5 2 6 2 6 12 8 3 6 15 3 12 13 9 12 7 20 16 30 2 17 21 10 15 7 5 4 3 5 6 22 10 7 12 7 7 13 9 11 11
11 10 5 5 3 5 2 4 7 5 6 6 5 13 19 15 12 9 16 16 18 17 18 17 22 10 15 20 13 12 12 3 4 4 15 10 10 17 7 7 12 17 9 12 10
7 6 3 5 5 6 3 5 4 7 8 12 10 20 10 14 7 18 11 15 22 21 6 15 14 22 15 17 14 24 22 8 8 8 12 7 10 8 14 20 13 13 10 7 9
4 2 1 2 5 6 5 3 9 7 5 5 11 12 4 4 6 11 10 9 7 15 12 9 13 8 10 9 26 19 23 19 6 2 1 5 9 8 7 8 8 11 8 10 10
4 2 3 2 8 7 3 8 6 6 5 6 7 6 3 7 13 5 5 8 14 10 16 5 10 6 17 15 21 15 22 12 3 8 7 4 5 9 10 17 15 10 12 9 7
4 1 2 7 6 4 4 8 6 8 10 6 6 7 9 10 8 4 6 11 3 11 9 4 7 7 12 22 21 10 15 9 9 5 7 3 8 9 11 13 15 16 11 10 9
4 3 4 7 4 2 3 6 7 6 7 9 6 8 10 8 5 7 8 9 7 5 12 2 7 7 18 18 13 24 16 24 10 9 7 3 7 5 13 14 8 8 5 4 6
5 3 4 2 5 3 4 7 5 6 5 5 5 8 3 4 5 6 7 4 8 3 4 10 5 5 8 4 14 14 17 22 13 11 16 6 7 2 4 6 7 7 6 7 7
4 4 2 3 2 4 4 5 6 1 6 8 5 4 4 4 5 5 8 5 11 10 11 4 5 7 7 6 10 19 20 21 16 12 15 15 16 8 5 6 5 6 6 7 8
4 5 5 6 7 10 6 3 4 4 6 3 4 5 6 3 3 2 7 10 11 10 9 7 6 5 11 14 19 17 25 29 28 21 16 22 24 15 9 10 11 6 6 6 8
6 5 2 3 4 9 10 6 6 8 7 6 11 9 3 2 4 9 10 5 7 4 1 4 3 9 10 10 12 17 22 26 28 27 22 25 26 12 12 6 4 7 8 8 10
2 0 5 6 7 6 5 7 9 5 6 12 9 2 7 7 6 7 11 17 14 10 5 3 3 3 7 10 17 15 20 22 27 21 28 26 38 8 11 13 10 10 11 13 16
Wind_Direction
338 331 332 335 338 334 335 333 330 329 324 319 314 320 325 328 327 313 256 240 224 262 294 270 158 193 138 227 158 132 116 205 234 191 252 326 206 119 124 122 214 170 149 2 131
338 335 330 332 331 333 335 335 330 328 323 322 318 314 326 336 311 276 251 272 259 253 252 222 210 164 193 213 201 159 172 209 212 218 237 286 231 165 133 132 198 160 68 113 140
333 330 332 330 333 333 330 335 329 327 320 318 315 320 325 336 295 261 251 257 270 234 224 204 219 165 198 178 207 197 224 213 248 220 235 325 288 181 138 228 199 189 163 155 157
327 327 331 334 327 332 333 327 326 321 318 319 315 315 316 309 257 296 148 47 26 131 179 196 197 183 187 200 210 209 211 184 239 197 303 314 313 254 185 213 270 215 154 156 172
322 325 327 327 331 328 327 322 317 315 318 317 315 313 323 250 240 259 267 309 43 131 199 212 176 173 182 191 185 212 224 215 243 253 254 230 244 241 245 204 43 129 147 177 183
316 320 323 326 326 324 323 321 315 310 309 309 309 308 280 260 227 262 277 317 221 200 208 193 208 210 223 200 185 210 202 234 234 246 221 225 266 147 263 174 126 148 181 185 192
308 313 321 322 320 320 318 318 314 306 301 299 296 293 253 242 280 308 309 293 327 195 198 224 229 181 192 270 210 225 239 270 226 229 229 156 276 198 220 178 194 188 192 202 214
306 310 316 319 319 320 318 315 312 302 298 293 283 269 259 284 241 250 258 269 255 269 255 241 250 231 170 280 100 174 167 238 210 175 246 162 257 257 212 168 210 221 211 208 214
305 313 313 317 317 318 318 315 307 294 296 291 254 226 264 312 252 251 250 232 227 225 227 248 180 196 176 220 331 232 210 208 275 196 171 188 252 243 222 184 227 219 224 215 228
300 306 313 315 317 321 322 313 297 302 298 120 208 239 256 250 330 291 232 240 226 229 260 196 182 179 186 183 212 193 180 193 208 215 198 200 245 254 268 199 223 232 231 220 230
300 306 317 319 318 326 337 339 357 345 12 287 277 263 286 285 310 311 309 198 217 203 216 194 191 206 212 213 214 128 188 206 213 220 168 220 231 240 239 230 255 235 242 232 225
291 304 316 320 322 328 19 359 50 305 295 237 248 261 260 269 282 275 296 207 197 222 207 216 217 214 221 213 209 211 221 230 290 228 179 218 240 244 227 223 226 236 233 233 235
286 299 309 322 320 19 318 277 297 338 278 294 231 248 249 204 234 250 256 244 208 217 213 218 224 212 217 214 202 214 216 212 204 124 276 348 274 266 238 228 243 238 229 227 222
274 286 296 334 336 313 299 309 310 303 291 275 257 269 192 234 252 222 216 240 209 221 214 222 222 209 207 217 199 218 212 216 211 100 256 159 275 255 238 231 227 233 224 231 229
261 274 283 246 241 256 266 311 311 81 322 269 260 146 307 219 310 215 212 211 244 202 190 214 204 207 209 206 203 235 187 203 185 195 79 238 286 257 239 223 245 238 231 230 226
251 267 272 113 121 222 310 310 30 50 249 302 327 305 344 291 318 303 200 207 276 228 201 227 163 197 207 214 201 138 89 109 107 143 224 245 215 210 233 185 246 249 236 228 227
245 256 258 159 220 144 111 18 40 193 303 273 340 335 326 322 320 332 277 212 219 189 214 219 218 203 181 205 188 181 150 151 191 188 235 209 223 247 246 222 219 238 232 237 234
236 255 223 204 181 133 103 57 138 238 260 317 337 327 310 18 16 342 313 245 243 240 197 202 203 207 186 197 187 195 190 173 173 182 240 160 225 241 217 232 229 235 235 234 243
132 104 212 234 162 153 154 140 211 217 240 313 327 299 289 75 36 347 344 288 258 236 217 188 225 193 194 187 172 200 211 195 114 322 345 179 272 289 242 267 259 252 236 244 247
119 114 226 165 140 137 171 225 236 213 301 301 275 271 264 354 334 10 317 294 342 312 304 305 237 188 191 192 196 171 196 183 172 176 241 238 246 213 201 220 234 237 228 236 229
102 161 157 143 119 177 200 226 246 242 248 236 250 271 289 306 244 279 258 297 59 322 335 348 260 186 161 199 186 177 185 200 156 192 204 181 249 207 196 212 227 233 226 210 205
128 177 156 156 188 230 205 202 226 247 225 241 268 257 252 253 241 251 230 212 67 16 331 12 292 217 205 191 210 195 196 185 193 181 223 154 261 207 206 214 209 232 228 211 208
154 139 187 160 209 227 264 257 255 266 227 239 250 229 220 259 289 251 270 151 153 325 357 356 11 320 151 217 206 232 212 201 210 208 218 203 245 325 221 220 228 217 225 208 190
138 170 202 215 191 204 223 249 251 237 269 247 262 271 264 251 234 290 311 338 284 243 179 139 231 247 293 319 294 202 203 225 212 228 219 212 232 229 259 218 239 230 222 194 192
155 212 182 178 210 216 214 204 275 278 220 286 295 266 298 214 317 351 320 329 312 334 178 190 239 236 254 273 283 237 204 202 206 212 215 229 230 209 212 216 228 228 154 184 201
164 158 150 177 153 194 221 191 240 257 242 259 252 269 307 215 281 292 303 306 269 326 353 307 287 315 296 311 252 253 223 210 213 208 222 239 249 203 202 213 191 210 180 198 209
156 49 116 203 179 180 198 210 222 215 243 253 271 299 282 274 258 256 273 273 248 261 276 249 283 5 279 341 329 258 224 206 213 213 207 225 235 137 197 204 212 225 196 202 202